TimeCDT,TemperatureF,Dew PointF,Humidity,Sea Level PressureIn,VisibilityMPH,Wind Direction,Wind SpeedMPH,Gust SpeedMPH,PrecipitationIn,Events,Conditions,WindDirDegrees,DateUTC
12:15 AM,52.2,23.0,32,29.63,10.0,SSW,4.6,-,N/A,,Clear,210,2012-10-21 05:15:00
12:35 AM,50.9,23.4,34,29.63,10.0,Calm,Calm,-,N/A,,Clear,0,2012-10-21 05:35:00
12:55 AM,49.3,22.8,35,29.64,10.0,Calm,Calm,-,N/A,,Clear,0,2012-10-21 05:55:00
1:15 AM,50.9,22.1,32,29.64,10.0,SSW,3.5,-,N/A,,Clear,210,2012-10-21 06:15:00
1:35 AM,49.8,22.6,34,29.64,10.0,SSW,4.6,-,N/A,,Clear,200,2012-10-21 06:35:00
1:55 AM,50.7,22.6,33,29.64,10.0,SSW,4.6,-,N/A,,Clear,200,2012-10-21 06:55:00
2:15 AM,50.7,22.6,33,29.63,10.0,SSW,6.9,-,N/A,,Clear,200,2012-10-21 07:15:00
2:35 AM,50.9,22.6,33,29.63,10.0,SSW,8.1,-,N/A,,Clear,200,2012-10-21 07:35:00
2:55 AM,50.5,22.6,34,29.63,10.0,SSW,8.1,-,N/A,,Clear,200,2012-10-21 07:55:00
3:15 AM,50.9,22.6,33,29.64,10.0,SSW,5.8,-,N/A,,Clear,200,2012-10-21 08:15:00
3:35 AM,50.2,22.5,34,29.65,10.0,SSW,6.9,-,N/A,,Clear,200,2012-10-21 08:35:00
3:55 AM,50.9,22.5,33,29.64,10.0,South,10.4,-,N/A,,Clear,190,2012-10-21 08:55:00
4:15 AM,51.8,22.5,32,29.64,10.0,SSW,10.4,-,N/A,,Clear,200,2012-10-21 09:15:00
4:35 AM,51.8,22.3,32,29.64,10.0,SSW,8.1,-,N/A,,Clear,210,2012-10-21 09:35:00
4:55 AM,52.2,23.2,32,29.68,10.0,WNW,12.7,20.7,N/A,,Clear,290,2012-10-21 09:55:00
5:15 AM,56.7,23.0,27,29.68,10.0,West,5.8,-,N/A,,Clear,270,2012-10-21 10:15:00
5:35 AM,52.5,22.3,31,29.69,10.0,WNW,4.6,-,N/A,,Clear,300,2012-10-21 10:35:00
5:55 AM,50.0,22.1,33,29.70,10.0,WNW,4.6,-,N/A,,Clear,290,2012-10-21 10:55:00
6:15 AM,50.0,23.0,35,29.71,10.0,WNW,4.6,-,N/A,,Clear,290,2012-10-21 11:15:00
6:35 AM,47.8,24.4,40,29.71,10.0,NW,5.8,-,N/A,,Clear,310,2012-10-21 11:35:00
6:55 AM,46.6,25.9,44,29.72,10.0,West,6.9,-,N/A,,Clear,280,2012-10-21 11:55:00
7:15 AM,47.7,29.3,49,29.73,10.0,WNW,5.8,-,N/A,,Clear,290,2012-10-21 12:15:00
7:35 AM,46.4,31.1,55,29.75,10.0,NW,4.6,-,N/A,,Clear,310,2012-10-21 12:35:00
7:55 AM,44.6,31.5,60,29.76,10.0,NW,4.6,-,N/A,,Clear,310,2012-10-21 12:55:00
8:15 AM,42.6,31.1,64,29.77,10.0,Calm,Calm,-,N/A,,Clear,0,2012-10-21 13:15:00
8:35 AM,43.5,32.2,64,29.78,10.0,NW,5.8,-,N/A,,Clear,310,2012-10-21 13:35:00
8:55 AM,45.7,34.3,65,29.78,10.0,NW,12.7,-,N/A,,Clear,320,2012-10-21 13:55:00
9:15 AM,48.9,36.3,62,29.79,10.0,NNW,16.1,24.2,N/A,,Clear,340,2012-10-21 14:15:00
9:35 AM,50.5,37.8,62,29.80,10.0,NNW,16.1,24.2,N/A,,Clear,340,2012-10-21 14:35:00
9:55 AM,51.8,38.7,61,29.82,10.0,NNW,16.1,26.5,N/A,,Clear,340,2012-10-21 14:55:00
10:15 AM,53.1,39.2,59,29.82,10.0,North,13.8,26.5,N/A,,Clear,360,2012-10-21 15:15:00
10:35 AM,54.7,39.6,57,29.83,10.0,North,15.0,24.2,N/A,,Clear,360,2012-10-21 15:35:00
10:55 AM,55.4,39.9,56,29.84,10.0,North,11.5,21.9,N/A,,Clear,360,2012-10-21 15:55:00
11:15 AM,56.5,40.1,54,29.83,10.0,North,16.1,24.2,N/A,,Clear,350,2012-10-21 16:15:00
11:35 AM,57.0,40.3,54,29.82,10.0,North,18.4,23.0,N/A,,Clear,360,2012-10-21 16:35:00
11:55 AM,58.8,40.3,50,29.83,10.0,North,15.0,19.6,N/A,,Clear,10,2012-10-21 16:55:00
12:15 PM,59.2,40.1,49,29.83,10.0,North,16.1,20.7,N/A,,Clear,360,2012-10-21 17:15:00
12:35 PM,60.8,40.5,47,29.82,10.0,North,17.3,20.7,N/A,,Clear,360,2012-10-21 17:35:00
12:55 PM,61.7,40.3,45,29.83,10.0,North,13.8,23.0,N/A,,Clear,10,2012-10-21 17:55:00
1:15 PM,63.5,40.3,43,29.82,10.0,North,15.0,19.6,N/A,,Clear,360,2012-10-21 18:15:00
1:35 PM,63.7,40.1,42,29.82,10.0,North,15.0,23.0,N/A,,Clear,10,2012-10-21 18:35:00
1:55 PM,64.4,39.9,41,29.82,10.0,North,17.3,23.0,N/A,,Clear,10,2012-10-21 18:55:00
2:15 PM,65.3,39.9,39,29.81,10.0,NNE,17.3,21.9,N/A,,Clear,20,2012-10-21 19:15:00
2:35 PM,65.3,40.5,40,29.82,10.0,North,15.0,21.9,N/A,,Clear,10,2012-10-21 19:35:00
2:55 PM,65.7,40.3,39,29.81,10.0,NNE,18.4,23.0,N/A,,Clear,20,2012-10-21 19:55:00
3:15 PM,66.6,39.2,37,29.81,10.0,NNE,16.1,24.2,N/A,,Clear,20,2012-10-21 20:15:00
3:35 PM,66.9,38.7,35,29.81,10.0,NNE,19.6,24.2,N/A,,Clear,30,2012-10-21 20:35:00
3:55 PM,67.3,38.1,34,29.81,10.0,NNE,16.1,23.0,N/A,,Clear,20,2012-10-21 20:55:00
4:15 PM,67.8,37.6,33,29.81,10.0,NNE,15.0,20.7,N/A,,Clear,20,2012-10-21 21:15:00
4:35 PM,67.3,37.6,34,29.81,10.0,NNE,16.1,25.3,N/A,,Clear,30,2012-10-21 21:35:00
4:55 PM,67.1,36.9,33,29.81,10.0,NNE,17.3,25.3,N/A,,Clear,30,2012-10-21 21:55:00
5:15 PM,66.6,37.2,34,29.82,10.0,NE,12.7,20.7,N/A,,Clear,40,2012-10-21 22:15:00
5:35 PM,65.5,37.0,35,29.82,10.0,NNE,17.3,24.2,N/A,,Clear,20,2012-10-21 22:35:00
5:55 PM,64.8,36.5,35,29.83,10.0,NE,16.1,21.9,N/A,,Clear,40,2012-10-21 22:55:00
6:15 PM,63.7,37.4,38,29.84,10.0,NNE,17.3,20.7,N/A,,Clear,30,2012-10-21 23:15:00
6:35 PM,61.9,37.8,41,29.85,10.0,NNE,12.7,-,N/A,,Clear,30,2012-10-21 23:35:00
6:55 PM,60.3,38.3,44,29.85,10.0,NNE,11.5,-,N/A,,Clear,30,2012-10-21 23:55:00
7:15 PM,58.3,38.7,48,29.87,10.0,NNE,9.2,-,N/A,,Clear,30,2012-10-22 00:15:00
7:35 PM,56.1,38.8,52,29.87,10.0,NNE,8.1,-,N/A,,Clear,30,2012-10-22 00:35:00
7:55 PM,54.9,38.8,55,29.89,10.0,NNE,6.9,-,N/A,,Clear,30,2012-10-22 00:55:00
8:15 PM,52.7,38.7,59,29.89,10.0,NE,5.8,-,N/A,,Clear,40,2012-10-22 01:15:00
8:35 PM,51.8,38.7,61,29.89,10.0,NNE,6.9,-,N/A,,Clear,30,2012-10-22 01:35:00
8:55 PM,50.5,38.7,64,29.90,10.0,NNE,4.6,-,N/A,,Clear,30,2012-10-22 01:55:00
9:15 PM,49.8,38.8,66,29.91,10.0,NNE,5.8,-,N/A,,Clear,30,2012-10-22 02:15:00
9:35 PM,49.3,39.6,69,29.91,10.0,NE,6.9,-,N/A,,Clear,40,2012-10-22 02:35:00
9:55 PM,50.2,41.0,71,29.91,10.0,NE,10.4,-,N/A,,Clear,50,2012-10-22 02:55:00
10:15 PM,49.8,41.2,72,29.91,10.0,NE,9.2,-,N/A,,Clear,50,2012-10-22 03:15:00
10:35 PM,48.7,41.0,75,29.92,10.0,ENE,8.1,-,N/A,,Clear,60,2012-10-22 03:35:00
10:55 PM,47.5,40.5,77,29.92,10.0,NE,5.8,-,N/A,,Scattered Clouds,50,2012-10-22 03:55:00
11:15 PM,48.6,42.1,78,29.92,10.0,NE,11.5,-,N/A,,Overcast,50,2012-10-22 04:15:00
11:35 PM,48.6,42.8,80,29.92,10.0,NE,12.7,-,N/A,,Overcast,50,2012-10-22 04:35:00
11:55 PM,48.4,43.2,82,29.92,10.0,NE,13.8,20.7,N/A,,Overcast,50,2012-10-22 04:55:00